This demonstration page uses our WeatherBlox Daily Observations layout. Learn more.

Left ArrowRight Arrow

36.19886, -115.1175

Hourly Observations for May 30, 2022

Temp ( °F °C ) Dew Point ( °F °C ) Humidity (%) Winds ( mph kmh ) Pressure ( in mb ) Visibility ( mi km ) Precip ( " mm )
12:53 am 00:53 Clear 73 22.8 9 -12.8 8 8 N 12 19 29.71 1006 10 16 0.00 0.00
1:53 am 01:53 Clear 69 20.6 20 -6.7 15 15 ENE 6 9 29.72 1007 10 16 0.00 0.00
2:53 am 02:53 Clear 68 20 22 -5.6 17 17 NNE 8 13 29.73 1007 10 16 0.00 0.00
3:53 am 03:53 Clear 65 18.3 23 -5 20 20 NE 9 15 29.75 1007 10 16 0.00 0.00
4:53 am 04:53 Clear 66 18.9 23 -5 19 19 NE 7 11 29.76 1008 10 16 0.00 0.00
5:53 am 05:53 Sunny 64 17.8 24 -4.4 22 22 ENE 8 13 29.78 1008 10 16 0.00 0.00
6:53 am 06:53 Sunny 67 19.4 25 -3.9 20 20 N 10 17 29.79 1009 10 16 0.00 0.00
7:53 am 07:53 Sunny 69 20.6 26 -3.3 20 20 VRB 5 7 29.80 1009 10 16 0.00 0.00
8:53 am 08:53 Sunny 71 21.7 24 -4.4 17 17 N 5 7 29.81 1009 10 16 0.00 0.00
9:53 am 09:53 Sunny 72 22.2 24 -4.4 17 17 E 7 11 29.80 1009 10 16 0.00 0.00
10:53 am 10:53 Sunny 74 23.3 23 -5 15 15 SSE 10 17 29.80 1009 10 16 0.00 0.00
11:53 am 11:53 Sunny 75 23.9 23 -5 14 14 Calm 29.79 1009 10 16 0.00 0.00
12:53 pm 12:53 Sunny 77 25 23 -5 13 13 S 6 9 29.78 1008 10 16 0.00 0.00
1:53 pm 13:53 Sunny 79 26.1 23 -5 12 12 VRB 5 7 29.75 1008 10 16 0.00 0.00
2:53 pm 14:53 Sunny 80 26.7 23 -5 12 12 Calm 29.73 1007 10 16 0.00 0.00
3:53 pm 15:53 Sunny 81 27.2 23 -5 12 12 SSE 9 15 29.71 1006 10 16 0.00 0.00
4:53 pm 16:53 Sunny 82 27.8 23 -5 11 11 SE 10 17 29.69 1005 10 16 0.00 0.00
5:53 pm 17:53 Sunny 82 27.8 21 -6.1 10 10 S 9 15 29.68 1005 10 16 0.00 0.00
6:53 pm 18:53 Sunny 82 27.8 20 -6.7 10 10 SSW 6 9 29.67 1005 10 16 0.00 0.00
7:53 pm 19:53 Clear 81 27.2 20 -6.7 10 10 SSW 8 13 29.68 1005 10 16 0.00 0.00
8:53 pm 20:53 Clear 80 26.7 20 -6.7 10 10 SSW 3 6 29.68 1005 10 16 0.00 0.00
9:53 pm 21:53 Clear 76 24.4 21 -6.1 13 13 E 7 11 29.72 1006 10 16 0.00 0.00
10:53 pm 22:53 Clear 75 23.9 22 -5.6 14 14 NE 5 7 29.72 1006 10 16 0.00 0.00
11:53 pm 23:53 Clear 72 22.2 22 -5.6 15 15 N 3 6 29.72 1006 10 16 0.00 0.00

Powered by AerisWeather